When you browse on this site, cookies collect data to enhance your experience and personalize the content and advertising you see.
Visit our Privacy Policy to learn more. By continuing to use the site, you agree to this use of cookies and data.
  • In France
  • List of Countries
  • For 7 days
  • Water Temperature
  • Weather Map
  • Weather Widgets
  • user-avatar
    Login

    Hourly Weather Bulla Regia

    Today, 2 June, Tuesday

    Time Temperature Precipitation Wind Pressure Humidity
    00:00 +18°C° 0.1 mm 1 mps 703 mmHg 70%
    01:00 +18°C° 0.1 mm 1 mps 703 mmHg 71%
    02:00 +16°C° 0 mm 1 mps 703 mmHg 73%
    03:00 +16°C° 0 mm 1 mps 702 mmHg 74%
    04:00 +15°C° 0 mm 0 mps 702 mmHg 75%
    05:00 +16°C° 0 mm 1 mps 703 mmHg 73%
    06:00 +18°C° 0 mm 1 mps 703 mmHg 70%
    07:00 +19°C° 0 mm 1 mps 703 mmHg 67%
    08:00 +21°C° 0 mm 1 mps 703 mmHg 61%
    09:00 +22°C° 0 mm 1 mps 704 mmHg 55%
    10:00 +24°C° 0 mm 1 mps 704 mmHg 49%
    11:00 +25°C° 0 mm 1 mps 704 mmHg 44%
    12:00 +27°C° 0 mm 2 mps 704 mmHg 38%
    13:00 +28°C° 0 mm 2 mps 704 mmHg 33%
    14:00 +28°C° 0 mm 3 mps 704 mmHg 33%
    15:00 +28°C° 0 mm 4 mps 703 mmHg 33%
    16:00 +28°C° 0 mm 5 mps 703 mmHg 33%
    17:00 +27°C° 0 mm 4 mps 703 mmHg 37%
    18:00 +25°C° 0 mm 4 mps 703 mmHg 41%
    19:00 +24°C° 0 mm 3 mps 702 mmHg 44%
    20:00 +23°C° 0 mm 2 mps 703 mmHg 48%
    21:00 +20°C° 0 mm 2 mps 703 mmHg 51%
    22:00 +20°C° 0 mm 1 mps 703 mmHg 54%
    23:00 +20°C° 0 mm 1 mps 703 mmHg 56%

    Tomorrow, 3 June, Wednesday

    Time Temperature Precipitation Wind Pressure Humidity
    00:00 +19°C° 0 mm 1 mps 702 mmHg 57%
    01:00 +17°C° 0 mm 0 mps 702 mmHg 58%
    02:00 +16°C° 0 mm 0 mps 701 mmHg 59%
    03:00 +16°C° 0 mm 0 mps 701 mmHg 60%
    04:00 +15°C° 0 mm 0 mps 701 mmHg 61%
    05:00 +16°C° 0 mm 0 mps 701 mmHg 58%
    06:00 +17°C° 0 mm 0 mps 701 mmHg 56%
    07:00 +18°C° 0 mm 0 mps 701 mmHg 53%
    08:00 +20°C° 0 mm 0 mps 701 mmHg 47%
    09:00 +22°C° 0 mm 0 mps 702 mmHg 41%
    10:00 +26°C° 0 mm 1 mps 702 mmHg 35%
    11:00 +27°C° 0 mm 1 mps 702 mmHg 32%
    12:00 +29°C° 0 mm 2 mps 702 mmHg 30%
    13:00 +30°C° 0 mm 3 mps 702 mmHg 27%
    14:00 +30°C° 0 mm 3 mps 701 mmHg 26%
    15:00 +30°C° 0 mm 3 mps 701 mmHg 26%
    16:00 +32°C° 0 mm 4 mps 701 mmHg 25%
    17:00 +29°C° 0 mm 3 mps 700 mmHg 28%
    18:00 +28°C° 0 mm 3 mps 700 mmHg 32%
    19:00 +27°C° 0 mm 3 mps 700 mmHg 35%
    20:00 +26°C° 0 mm 2 mps 700 mmHg 38%
    21:00 +24°C° 0 mm 2 mps 700 mmHg 41%
    22:00 +23°C° 0 mm 1 mps 700 mmHg 43%
    23:00 +23°C° 0 mm 1 mps 699 mmHg 45%

    Day after tomorrow, 4 June, Thursday

    Time Temperature Precipitation Wind Pressure Humidity
    00:00 +22°C° 0 mm 1 mps 699 mmHg 46%
    01:00 +22°C° 0 mm 1 mps 698 mmHg 48%
    02:00 +22°C° 0 mm 1 mps 698 mmHg 49%
    03:00 +22°C° 0 mm 1 mps 698 mmHg 51%
    04:00 +20°C° 0 mm 2 mps 697 mmHg 52%
    05:00 +21°C° 0 mm 2 mps 698 mmHg 50%
    06:00 +24°C° 0 mm 2 mps 698 mmHg 48%
    07:00 +25°C° 0 mm 2 mps 698 mmHg 46%
    08:00 +27°C° 0 mm 3 mps 698 mmHg 38%
    09:00 +30°C° 0 mm 4 mps 699 mmHg 30%
    10:00 +34°C° 0 mm 5 mps 699 mmHg 22%
    11:00 +35°C° 0 mm 5 mps 699 mmHg 20%
    12:00 +36°C° 0 mm 5 mps 699 mmHg 18%
    13:00 +37°C° 0 mm 5 mps 699 mmHg 17%
    14:00 +36°C° 0 mm 5 mps 698 mmHg 19%
    15:00 +35°C° 0 mm 6 mps 698 mmHg 22%
    16:00 +34°C° 0 mm 7 mps 697 mmHg 24%
    17:00 +30°C° 0.2 mm 6 mps 697 mmHg 32%
    18:00 +27°C° 0.2 mm 5 mps 697 mmHg 40%
    19:00 +22°C° 0.2 mm 5 mps 697 mmHg 49%
    20:00 +21°C° 0.1 mm 4 mps 697 mmHg 51%
    21:00 +20°C° 0.1 mm 3 mps 697 mmHg 54%
    22:00 +19°C° 0.1 mm 2 mps 697 mmHg 57%
    23:00 +19°C° 0.1 mm 2 mps 697 mmHg 59%

    5 June, Friday

    Time Temperature Precipitation Wind Pressure Humidity
    00:00 +18°C° 0.1 mm 2 mps 697 mmHg 61%
    01:00 +18°C° 0.1 mm 2 mps 697 mmHg 63%
    02:00 +17°C° 0.2 mm 3 mps 697 mmHg 68%
    03:00 +17°C° 0.2 mm 3 mps 697 mmHg 74%
    04:00 +17°C° 0.2 mm 3 mps 697 mmHg 79%
    05:00 +17°C° 0 mm 4 mps 697 mmHg 75%
    06:00 +17°C° 0 mm 5 mps 698 mmHg 72%
    07:00 +19°C° 0 mm 6 mps 698 mmHg 68%
    08:00 +20°C° 0 mm 7 mps 699 mmHg 61%
    09:00 +21°C° 0 mm 8 mps 699 mmHg 55%
    10:00 +23°C° 0 mm 9 mps 700 mmHg 48%
    11:00 +24°C° 0 mm 9 mps 700 mmHg 44%
    12:00 +24°C° 0 mm 9 mps 700 mmHg 39%
    13:00 +26°C° 0 mm 9 mps 701 mmHg 35%
    14:00 +26°C° 0 mm 9 mps 701 mmHg 35%
    15:00 +26°C° 0 mm 8 mps 701 mmHg 35%
    16:00 +24°C° 0 mm 8 mps 701 mmHg 35%
    17:00 +23°C° 0 mm 7 mps 701 mmHg 39%
    18:00 +22°C° 0 mm 7 mps 701 mmHg 43%
    19:00 +20°C° 0 mm 6 mps 701 mmHg 48%
    20:00 +19°C° 0 mm 4 mps 702 mmHg 52%
    21:00 +18°C° 0 mm 3 mps 702 mmHg 57%
    22:00 +16°C° 0 mm 1 mps 703 mmHg 62%
    23:00 +16°C° 0 mm 1 mps 702 mmHg 60%

    6 June, Saturday

    Time Temperature Precipitation Wind Pressure Humidity
    00:00 +16°C° 0 mm 2 mps 702 mmHg 59%
    01:00 +16°C° 0 mm 2 mps 702 mmHg 58%
    02:00 +15°C° 0 mm 1 mps 702 mmHg 57%
    03:00 +15°C° 0 mm 1 mps 702 mmHg 56%
    04:00 +15°C° 0 mm 1 mps 702 mmHg 55%
    05:00 +16°C° 0 mm 1 mps 702 mmHg 51%
    06:00 +18°C° 0 mm 1 mps 703 mmHg 47%
    07:00 +20°C° 0 mm 1 mps 704 mmHg 43%
    08:00 +22°C° 0 mm 1 mps 704 mmHg 38%
    09:00 +23°C° 0 mm 1 mps 704 mmHg 33%
    10:00 +25°C° 0 mm 2 mps 705 mmHg 28%
    11:00 +27°C° 0 mm 2 mps 705 mmHg 26%
    12:00 +28°C° 0 mm 2 mps 705 mmHg 23%
    13:00 +29°C° 0 mm 2 mps 704 mmHg 21%
    14:00 +30°C° 0 mm 2 mps 704 mmHg 20%
    15:00 +31°C° 0 mm 2 mps 704 mmHg 19%
    16:00 +31°C° 0 mm 1 mps 704 mmHg 18%
    17:00 +30°C° 0 mm 2 mps 703 mmHg 21%
    18:00 +29°C° 0 mm 2 mps 703 mmHg 24%
    19:00 +28°C° 0 mm 2 mps 703 mmHg 27%
    20:00 +27°C° 0 mm 2 mps 703 mmHg 29%
    21:00 +25°C° 0 mm 2 mps 703 mmHg 32%
    22:00 +24°C° 0 mm 1 mps 703 mmHg 34%
    23:00 +23°C° 0 mm 1 mps 702 mmHg 37%

    7 June, Sunday

    Time Temperature Precipitation Wind Pressure Humidity
    00:00 +23°C° 0 mm 1 mps 702 mmHg 39%
    01:00 +22°C° 0 mm 1 mps 701 mmHg 42%
    02:00 +22°C° 0 mm 1 mps 701 mmHg 43%
    03:00 +22°C° 0 mm 1 mps 700 mmHg 44%
    04:00 +22°C° 0 mm 1 mps 700 mmHg 46%
    05:00 +23°C° 0 mm 1 mps 700 mmHg 44%
    06:00 +24°C° 0 mm 1 mps 700 mmHg 43%
    07:00 +25°C° 0 mm 1 mps 701 mmHg 42%
    08:00 +27°C° 0 mm 2 mps 701 mmHg 36%
    09:00 +30°C° 0 mm 3 mps 702 mmHg 30%
    10:00 +34°C° 0 mm 4 mps 703 mmHg 24%
    11:00 +34°C° 0 mm 4 mps 703 mmHg 25%
    12:00 +34°C° 0 mm 5 mps 703 mmHg 25%
    13:00 +34°C° 0 mm 6 mps 702 mmHg 26%
    14:00 +33°C° 0 mm 6 mps 702 mmHg 28%
    15:00 +32°C° 0 mm 6 mps 702 mmHg 31%
    16:00 +30°C° 0 mm 7 mps 701 mmHg 34%
    17:00 +28°C° 0.2 mm 6 mps 701 mmHg 41%
    18:00 +26°C° 0.2 mm 5 mps 701 mmHg 48%
    19:00 +22°C° 0.2 mm 4 mps 702 mmHg 55%
    20:00 +21°C° 0.1 mm 3 mps 702 mmHg 60%
    21:00 +20°C° 0.1 mm 2 mps 703 mmHg 65%
    22:00 +20°C° 0.1 mm 1 mps 703 mmHg 71%
    23:00 +20°C° 0 mm 1 mps 703 mmHg 71%
    Show more